FW1480 Weather Reports


Display with metric or nautical units.
time (UTC)temp
F
wind
direction
speed
MPH
gust
MPH
rain 1hr
in
rain 24hr
in
rain mn
in
humidity
%
barometer
mb
20260502232808 52 77 0.0 0.0 0.00 0.00 0.00 63 1011.7
20260502232307 52 77 0.0 0.0 0.00 0.00 0.00 61 1011.6
20260502231804 52 77 0.0 0.0 0.00 0.00 0.00 61 1011.6
20260502231302 52 77 0.0 0.0 0.00 0.00 0.00 61 1011.7
20260502230800 53 77 0.0 0.0 0.00 0.00 0.00 60 1011.7
20260502230258 53 77 0.0 0.0 0.00 0.00 0.00 58 1011.6
20260502225758 53 108 0.0 0.0 0.00 0.00 0.00 59 1011.7
20260502225257 53 108 0.0 0.0 0.00 0.00 0.00 57 1011.7
20260502224251 54 86 0.0 0.0 0.00 0.00 0.00 58 1011.6
20260502223749 54 41 0.0 0.0 0.00 0.00 0.00 56 1011.6
20260502223248 55 58 0.0 0.0 0.00 0.00 0.00 55 1011.7
20260502222750 55 92 0.0 0.0 0.00 0.00 0.00 54 1011.7
20260502222246 55 45 0.0 0.0 0.00 0.00 0.00 53 1011.6
20260502221744 56 111 0.0 0.0 0.00 0.00 0.00 52 1011.5
20260502221245 56 147 0.0 2.0 0.00 0.00 0.00 51 1011.4
20260502220739 56 70 0.0 2.0 0.00 0.00 0.00 48 1011.3
20260502215726 56 219 0.0 4.0 0.00 0.00 0.00 49 1011.4
20260502215221 56 55 0.0 4.0 0.00 0.00 0.00 47 1011.5
20260502214716 56 102 0.0 4.0 0.00 0.00 0.00 47 1011.4
20260502214209 56 101 0.0 4.0 0.00 0.00 0.00 48 1011.4
20260502213703 56 113 0.0 1.0 0.00 0.00 0.00 47 1011.4
20260502213157 56 169 0.0 3.0 0.00 0.00 0.00 49 1011.4
20260502212651 56 113 0.0 3.0 0.00 0.00 0.00 48 1011.3
20260502212145 56 65 0.0 1.0 0.00 0.00 0.00 50 1011.3
20260502211638 56 60 0.0 4.0 0.00 0.00 0.00 51 1011.3
20260502211139 56 83 0.0 4.0 0.00 0.00 0.00 51 1011.2
20260502210636 56 251 0.0 4.0 0.00 0.00 0.00 52 1011.2
20260502210136 56 133 0.0 4.0 0.00 0.00 0.00 50 1011.1
20260502205637 56 158 0.0 1.0 0.00 0.00 0.00 51 1011.2
20260502205136 56 46 0.0 1.0 0.00 0.00 0.00 51 1011.0
20260502204635 56 291 0.0 1.0 0.00 0.00 0.00 51 1011.2
20260502204135 56 264 0.0 1.0 0.00 0.00 0.00 51 1011.3
20260502203634 56 120 0.0 1.0 0.00 0.00 0.00 51 1011.2
20260502203133 56 77 0.0 1.0 0.00 0.00 0.00 49 1011.3
20260502202633 56 246 0.0 3.0 0.00 0.00 0.00 52 1011.5
20260502202132 56 120 0.0 3.0 0.00 0.00 0.00 51 1011.3
20260502201632 56 129 1.0 5.0 0.00 0.00 0.00 54 1011.4
20260502201131 56 51 1.0 5.0 0.00 0.00 0.00 54 1011.5
20260502200628 56 68 1.0 5.0 0.00 0.00 0.00 53 1011.6
20260502195128 56 202 0.0 1.0 0.00 0.00 0.00 57 1011.5
20260502194629 55 357 1.0 9.0 0.00 0.00 0.00 60 1011.7
20260502194123 55 62 1.0 9.0 0.00 0.00 0.00 58 1011.7
20260502193617 54 60 0.0 2.0 0.00 0.00 0.00 58 1011.9
20260502193110 54 11 0.0 3.0 0.00 0.00 0.00 58 1011.9
20260502192605 55 56 0.0 3.0 0.00 0.00 0.00 57 1012.1
20260502192104 55 282 1.0 9.0 0.00 0.00 0.00 59 1012.2
20260502191605 55 10 1.0 9.0 0.00 0.00 0.00 58 1012.4
20260502190601 55 72 0.0 2.0 0.00 0.00 0.00 57 1012.3
20260502185602 54 114 0.0 4.0 0.00 0.00 0.00 59 1012.5
20260502184601 54 113 0.0 5.0 0.00 0.00 0.00 57 1012.6
20260502184059 54 316 0.0 4.0 0.00 0.00 0.00 58 1012.7
20260502183600 54 266 0.0 1.0 0.00 0.00 0.00 58 1012.8
20260502183100 53 143 0.0 3.0 0.00 0.00 0.00 60 1012.9
20260502182600 53 53 0.0 5.0 0.00 0.00 0.00 58 1012.9
20260502182101 53 59 0.0 7.0 0.00 0.00 0.00 61 1012.9
20260502181600 53 100 0.0 7.0 0.00 0.00 0.00 60 1012.8
20260502181100 54 87 0.0 4.0 0.00 0.00 0.00 65 1012.8
20260502180559 53 41 0.0 7.0 0.00 0.00 0.00 68 1012.9
20260502164046 49 96 0.0 3.0 0.00 0.00 0.00 80 1013.4
20260502163546 49 105 0.0 3.0 0.00 0.00 0.00 79 1013.5
20260502163045 49 56 0.0 4.0 0.00 0.00 0.00 80 1013.5
20260502162541 49 130 0.0 5.0 0.00 0.00 0.00 80 1013.4
20260502161541 49 58 0.0 4.0 0.00 0.00 0.00 80 1013.5
20260502160538 49 18 0.0 3.0 0.00 0.00 0.00 80 1013.3
20260502152022 51 58 0.0 5.0 0.00 0.00 0.00 78 1013.2
20260502151516 51 61 0.0 5.0 0.00 0.00 0.00 78 1013.1
20260502151011 51 88 0.0 0.0 0.00 0.00 0.00 78 1013.3
20260502150504 51 281 0.0 0.0 0.00 0.00 0.00 78 1013.2
20260502130330 49 243 0.0 0.0 0.00 0.00 0.00 87 1013.5
20260502122228 0 0.0 0.0 0.00 0.00 0.00 1013.4
20260502121629 0 0.0 0.0 0.00 0.00 0.00 1013.4
20260502121121 0 0.0 0.0 0.00 0.00 0.00 1013.6
20260502120612 0 0.0 0.0 0.00 0.00 0.00 1013.5
20260502115428 0 0.0 0.0 0.00 0.00 0.00 1013.6
20260502114924 0 0.0 0.0 0.00 0.00 0.00 1013.4
20260502114420 0 0.0 0.0 0.00 0.00 0.00 1013.4
20260502113914 0 0.0 0.0 0.00 0.00 0.00 1013.5
20260502113320 0 0.0 0.0 0.00 0.00 0.00 1013.2
20260502112217 0 0.0 0.0 0.00 0.00 0.00 1013.3
20260502111716 0 0.0 0.0 0.00 0.00 0.00 1013.3
20260502111215 0 0.0 0.0 0.00 0.00 0.00 1013.3
20260502110120 0 0.0 0.0 0.00 0.00 0.00 1013.2
20260502105619 0 0.0 0.0 0.00 0.00 0.00 1013.2
20260502105116 0 0.0 0.0 0.00 0.00 0.00 1013.2
20260502104615 0 0.0 0.0 0.00 0.00 0.00 1013.1
20260502104025 0 0.0 0.0 0.00 0.00 0.00 1013.1
20260502103518 0 0.0 0.0 0.00 0.00 0.00 1013.1
20260502102923 0 0.0 0.0 0.00 0.00 0.00 1013.0
20260502102413 0 0.0 0.0 0.00 0.00 0.00 1013.1
20260502101821 0 0.0 0.0 0.00 0.00 0.00 1013.2
20260502101229 0 0.0 0.0 0.00 0.00 0.00 1013.2
20260502100716 0 0.0 0.0 0.00 0.00 0.00 1013.2
20260502100121 0 0.0 0.0 0.00 0.00 0.00 1013.2
20260502090820 0 0.0 0.0 0.00 0.00 0.00 1013.1
20260502090322 0 0.0 0.0 0.00 0.00 0.00 1013.2
20260502071229 47 134 0.0 0.0 0.00 0.00 0.00 91 1012.8
20260502070217 47 133 0.0 0.0 0.00 0.00 0.00 91 1012.6
20260502065711 47 133 0.0 0.0 0.00 0.00 0.00 91 1012.7
20260502065205 47 134 0.0 0.0 0.00 0.00 0.00 91 1012.7
20260502064701 47 133 0.0 0.0 0.00 0.00 0.00 90 1012.7
20260502064202 47 134 0.0 0.0 0.00 0.00 0.00 90 1012.8
20260502063702 47 136 0.0 0.0 0.00 0.00 0.00 89 1013.0
20260502063158 47 136 0.0 0.0 0.00 0.00 0.00 89 1013.1
20260502062655 47 136 0.0 0.0 0.00 0.00 0.00 89 1013.0
20260502062155 47 136 0.0 0.0 0.00 0.00 0.00 88 1013.1
20260502060150 48 40 0.0 0.0 0.00 0.00 0.00 86 1012.9
20260502055651 48 40 0.0 0.0 0.00 0.00 0.00 85 1013.0
20260502055150 48 40 0.0 0.0 0.00 0.00 0.00 84 1012.9
20260502054650 48 235 0.0 0.0 0.00 0.00 0.00 83 1013.2
20260502053648 48 235 0.0 0.0 0.00 0.00 0.00 82 1013.3
20260502053149 48 235 0.0 0.0 0.00 0.00 0.00 82 1013.2
20260502052647 48 235 0.0 0.0 0.00 0.00 0.00 82 1013.2
20260502052147 48 235 0.0 0.0 0.00 0.00 0.00 82 1013.1
20260502051645 49 235 0.0 0.0 0.00 0.00 0.00 82 1013.1
20260502051144 49 236 0.0 0.0 0.00 0.00 0.00 82 1013.1
20260502050646 48 224 0.0 0.0 0.00 0.00 0.00 83 1013.0
20260502050145 48 117 0.0 0.0 0.00 0.00 0.00 82 1012.9
20260502045645 48 117 0.0 0.0 0.00 0.00 0.00 82 1013.3
20260502044645 49 117 0.0 0.0 0.00 0.00 0.00 81 1013.3
20260502044144 49 117 0.0 0.0 0.00 0.00 0.00 81 1013.4
20260502043645 49 117 0.0 0.0 0.00 0.00 0.00 81 1013.4
20260502042143 49 117 0.0 0.0 0.00 0.00 0.00 80 1013.3
20260502041645 49 117 0.0 0.0 0.00 0.00 0.00 80 1013.3
20260502040144 49 117 0.0 0.0 0.00 0.00 0.00 80 1013.4
20260502035144 49 117 0.0 0.0 0.00 0.00 0.00 80 1013.3
20260502034638 49 117 0.0 0.0 0.00 0.00 0.00 80 1013.2
20260502034131 49 117 0.0 0.0 0.00 0.00 0.00 80 1013.2
20260502033119 49 117 0.0 0.0 0.00 0.00 0.00 79 1013.2
20260502032108 49 117 0.0 0.0 0.00 0.00 0.00 79 1013.3
20260502031601 49 117 0.0 0.0 0.00 0.00 0.00 79 1013.5
20260502031055 49 117 0.0 0.0 0.00 0.00 0.00 78 1013.5
20260502030043 49 117 0.0 0.0 0.00 0.00 0.00 78 1013.3
20260502025538 49 117 0.0 0.0 0.00 0.00 0.00 78 1013.5
20260502025032 49 117 0.0 0.0 0.00 0.00 0.00 79 1013.5
20260502024526 49 117 0.0 0.0 0.00 0.00 0.00 78 1013.5
20260502024020 49 117 0.0 0.0 0.00 0.00 0.00 78 1013.4
20260502023008 49 117 0.0 0.0 0.00 0.00 0.00 78 1013.2
20260502022501 49 117 0.0 0.0 0.00 0.00 0.00 78 1013.5
20260502021955 49 117 0.0 0.0 0.00 0.00 0.00 76 1013.5
20260502020943 50 117 0.0 0.0 0.00 0.00 0.00 76 1013.4
20260502020438 50 117 0.0 0.0 0.00 0.00 0.00 74 1013.3
20260502015931 50 117 0.0 0.0 0.00 0.00 0.00 74 1013.3
20260502015425 50 117 0.0 0.0 0.00 0.00 0.00 73 1013.3
20260502014920 51 117 0.0 0.0 0.00 0.00 0.00 73 1013.4
20260502014414 51 117 0.0 0.0 0.00 0.00 0.00 73 1013.3
20260502013401 51 117 0.0 0.0 0.00 0.00 0.00 72 1013.4
20260502012855 51 117 0.0 0.0 0.00 0.00 0.00 72 1013.5
20260502012350 52 160 0.0 0.0 0.00 0.00 0.00 72 1013.5
20260502011342 51 134 0.0 0.0 0.00 0.00 0.00 72 1013.5
20260502010840 51 134 0.0 0.0 0.00 0.00 0.00 71 1013.3
20260502010339 51 132 0.0 0.0 0.00 0.00 0.00 71 1013.2
20260502005839 51 132 0.0 0.0 0.00 0.00 0.00 70 1013.1
20260502004840 52 132 0.0 0.0 0.00 0.00 0.00 69 1013.2
20260502003835 53 169 0.0 0.0 0.00 0.00 0.00 67 1013.0
20260502002833 53 146 0.0 0.0 0.00 0.00 0.00 66 1013.1
20260502002332 53 143 0.0 0.0 0.00 0.00 0.00 65 1013.1
20260502001829 54 143 0.0 0.0 0.00 0.00 0.00 65 1013.0
20260502001329 54 120 0.0 0.0 0.00 0.00 0.00 65 1013.0
20260502000829 54 212 0.0 0.0 0.00 0.00 0.00 64 1013.0
20260502000327 55 141 0.0 0.0 0.00 0.00 0.00 64 1012.9
20260501235826 55 143 0.0 0.0 0.00 0.00 0.00 63 1012.7
20260501234828 56 150 0.0 1.0 0.00 0.00 0.00 60 1012.4
20260501234328 56 230 0.0 1.0 0.00 0.00 0.00 59 1012.3
20260501233828 56 229 0.0 4.0 0.00 0.00 0.00 59 1012.3
20260501233329 56 158 0.0 4.0 0.00 0.00 0.00 58 1012.1
20260501232830 57 209 0.0 1.0 0.00 0.00 0.00 57 1012.0